Wind_Speed
83 78 77 76 75 72 61 62 59 61 55 49 47 41 42 39 44 47 53 53 54 51 47 42 38 35 34 36 38 46 50 48 45 41 36 34 32 30 30 28 29 29 31 33
87 84 88 83 72 68 67 67 65 65 56 52 52 45 40 41 43 45 51 52 53 52 49 46 42 39 35 39 42 45 50 50 45 42 39 38 35 34 35 35 36 34 35 35
90 92 86 79 73 71 71 71 68 66 60 55 56 52 47 46 42 43 42 49 50 53 50 48 47 44 38 36 40 45 49 49 48 44 42 40 38 37 38 36 38 39 39 37
97 95 87 80 77 74 71 73 71 73 73 65 66 64 49 45 42 40 37 37 44 49 51 48 46 44 40 35 37 44 48 48 48 45 43 40 39 36 37 38 39 38 38 37
99 94 86 87 87 84 81 79 79 83 82 79 73 62 50 47 41 40 34 28 31 39 45 51 47 43 38 35 34 39 46 49 47 43 41 40 39 38 39 38 39 37 36 36
94 91 93 97 91 86 87 86 82 86 89 83 73 63 54 49 48 42 39 35 30 32 41 51 54 51 46 43 41 40 44 47 44 41 39 39 40 42 40 40 41 41 41 42
94 95 97 100 94 90 93 93 88 91 93 79 65 49 47 47 49 48 42 41 37 31 35 44 52 55 52 49 48 48 45 40 38 39 42 42 42 44 43 43 43 44 46 46
95 98 98 99 99 99 96 95 91 93 92 77 60 47 47 50 52 50 47 43 40 37 34 31 36 47 54 55 55 53 50 45 45 46 46 45 46 47 47 46 48 48 48 48
101 105 104 103 105 102 102 99 96 93 91 74 60 52 53 53 55 54 52 52 50 44 40 37 34 36 36 40 51 54 54 54 53 52 50 49 50 50 51 50 51 52 41 38
98 101 101 103 102 103 106 103 98 91 84 71 59 58 60 62 61 57 56 56 55 56 51 45 43 44 45 42 40 42 45 51 54 53 52 53 52 52 51 48 44 37 37 38
101 100 95 97 96 96 98 99 94 85 78 72 66 63 64 63 63 62 66 61 61 59 56 54 51 55 51 47 45 43 41 42 43 43 44 46 43 41 40 40 40 40 40 41
98 95 92 94 93 90 85 85 84 81 77 73 69 68 67 65 68 73 68 60 60 59 57 55 52 58 58 54 51 49 47 46 45 41 40 41 42 40 42 43 43 42 43 44
95 96 91 93 92 92 88 82 82 82 80 78 76 73 73 73 72 69 68 66 64 61 60 58 55 57 59 58 56 55 53 52 49 46 43 45 45 45 48 48 47 45 46 48
107 108 99 100 96 98 92 90 90 89 91 89 85 82 82 82 82 81 76 69 66 63 63 63 59 59 59 61 60 58 55 51 51 50 51 50 49 50 48 47 49 51 53 53
102 106 106 108 103 93 86 86 83 85 91 93 89 88 89 87 85 83 81 75 69 68 65 66 64 62 63 62 62 62 59 58 57 55 53 52 51 51 52 52 53 54 55 56
100 109 113 113 102 91 84 82 83 85 88 92 91 92 93 90 86 86 87 83 79 73 72 68 70 68 68 68 67 65 65 64 62 61 60 58 58 59 58 57 58 60 59 58
91 102 104 100 94 93 85 81 81 82 82 87 93 95 96 94 89 89 88 86 83 79 74 76 74 73 73 74 73 73 71 69 69 67 67 66 65 65 64 66 66 64 63 63
64 76 87 94 96 95 93 89 84 82 86 85 89 99 97 92 91 90 89 89 86 85 84 81 76 79 82 80 79 79 77 75 73 72 71 72 73 72 72 72 72 72 71 72
34 43 55 70 90 98 99 95 90 89 91 90 88 88 94 96 94 92 92 93 92 93 90 87 84 85 88 85 85 84 83 82 79 80 80 81 80 79 79 78 78 80 81 82
20 28 35 46 63 82 93 97 97 92 89 87 87 87 87 92 94 94 93 94 97 97 93 92 93 93 92 90 89 87 88 88 88 87 89 89 87 87 87 88 90 90 90 89
9 14 28 40 50 64 79 91 98 97 91 88 88 88 87 86 88 90 92 94 95 96 96 97 98 95 95 96 94 92 92 91 91 91 91 93 93 93 93 94 94 94 95 96
7 9 14 25 41 54 67 79 89 95 96 92 89 87 84 83 83 86 88 92 95 97 98 96 96 96 95 98 97 97 96 96 96 96 96 95 97 97 97 98 99 99 100 100
11 10 5 12 22 39 54 68 79 89 94 96 94 90 86 84 82 81 82 83 84 89 94 97 97 96 95 94 94 96 99 100 101 101 100 99 98 99 100 102 104 105 106 105
21 18 16 16 17 19 33 52 66 77 86 94 95 92 90 87 84 82 80 79 77 78 82 86 91 95 97 97 103 110 114 107 105 106 107 107 107 107 110 111 108 105 107 108
33 31 27 28 29 24 22 30 49 61 72 83 90 93 94 93 91 90 86 84 82 80 78 76 74 77 80 80 85 90 98 100 103 102 100 102 104 102 103 105 104 101 102 99
45 44 41 38 38 34 32 31 31 48 57 68 79 87 92 94 94 93 93 93 94 92 87 78 74 80 82 90 96 93 99 98 98 96 97 100 100 98 99 98 94 96 94 94
57 55 51 52 49 47 45 43 40 40 46 58 64 72 82 89 91 94 97 98 96 95 87 82 85 97 94 98 94 98 103 98 100 100 96 99 99 95 91 94 95 96 99 100
Wind_Direction
222 227 227 225 220 222 227 228 230 230 228 226 226 223 230 229 231 231 230 223 216 221 222 226 227 228 227 220 221 222 225 223 223 225 226 229 236 241 246 250 252 253 255 260
217 219 223 225 227 222 218 224 223 228 225 223 228 221 218 226 226 228 229 228 220 217 222 225 229 231 231 226 221 221 225 226 227 229 230 234 239 243 248 253 259 262 265 269
213 218 221 222 222 223 220 221 223 228 229 224 229 226 217 217 226 229 230 230 226 218 220 224 228 230 233 232 227 222 224 228 228 229 233 238 244 251 255 256 257 261 266 270
212 214 215 219 219 220 221 222 222 224 227 225 223 227 222 216 221 229 231 232 231 224 222 226 230 234 235 240 236 229 226 229 232 232 236 241 249 253 253 255 259 264 271 276
212 211 209 216 217 214 216 220 224 224 224 224 225 228 223 214 217 229 231 231 233 227 221 223 228 229 231 234 244 242 235 233 233 234 237 242 246 249 252 256 261 269 273 276
211 211 208 214 215 216 217 216 219 226 230 229 227 223 227 219 211 223 228 232 229 224 217 218 222 227 230 230 232 235 239 237 238 239 242 242 244 248 254 259 266 269 274 279
209 211 211 213 211 213 217 220 216 224 229 235 230 232 236 231 225 218 226 235 234 228 226 222 222 224 227 230 231 232 237 240 241 244 245 246 248 251 257 261 266 271 276 280
208 211 211 212 213 213 215 219 221 222 230 228 226 220 223 226 231 223 221 228 237 238 232 226 224 227 230 231 235 239 239 241 243 242 244 247 249 253 256 261 266 271 276 282
209 208 211 213 215 215 215 217 220 224 228 226 228 221 219 223 229 228 221 220 221 229 233 237 236 234 227 230 234 237 240 242 242 243 245 247 251 256 260 264 269 274 275 274
210 215 212 213 214 215 218 216 219 221 227 229 226 224 221 221 224 232 224 225 222 224 227 232 239 240 237 235 234 231 229 232 236 238 242 244 248 252 255 259 262 259 259 260
209 214 216 221 220 219 219 222 221 222 224 225 225 226 226 224 226 226 231 223 224 223 225 227 232 238 238 239 237 235 235 235 233 232 235 238 238 242 245 246 248 252 254 258
211 215 216 220 224 226 226 226 227 225 225 226 225 224 226 226 227 227 231 232 230 227 224 228 229 234 238 238 237 236 237 237 239 238 239 242 241 239 240 243 247 254 258 261
212 217 218 221 221 224 225 223 224 226 224 224 224 225 224 224 226 230 230 232 231 230 230 229 230 229 235 239 242 242 241 240 241 245 249 248 246 247 247 252 260 264 263 267
208 215 216 219 220 221 219 218 219 218 219 219 219 220 223 224 224 225 228 230 233 231 232 232 232 233 231 235 238 242 243 243 242 241 243 247 249 253 257 260 263 265 267 270
211 214 216 219 222 221 218 218 216 216 218 219 220 221 223 222 223 226 230 231 233 234 231 235 236 234 233 232 234 238 242 245 247 249 251 255 257 258 261 262 264 265 267 269
215 215 217 218 218 218 215 217 218 216 216 219 218 222 225 226 225 226 228 230 233 234 233 233 237 239 238 236 235 237 240 243 246 249 253 255 259 261 263 264 265 266 268 271
221 221 221 222 219 220 221 218 217 218 221 219 217 222 225 225 227 228 230 231 233 235 235 235 234 240 242 243 243 240 240 243 246 248 252 256 258 260 262 263 265 268 269 271
231 230 228 225 223 221 222 222 219 217 220 220 218 220 224 227 228 229 231 234 235 235 236 238 239 240 241 245 247 248 248 249 251 253 253 253 255 257 258 260 262 265 269 270
227 229 228 226 224 222 220 220 219 218 218 216 219 220 222 225 227 229 230 233 236 237 239 240 241 243 244 243 243 248 252 253 254 258 259 262 262 264 265 267 268 269 270 271
221 210 210 215 217 222 221 219 219 218 218 218 219 221 222 224 226 227 230 233 236 238 238 241 242 244 247 248 249 249 249 250 252 255 259 261 262 265 266 268 269 270 271 272
224 216 210 209 211 213 218 220 220 219 217 217 220 222 223 226 229 230 232 233 236 240 241 241 242 244 247 249 250 252 253 254 255 256 257 259 260 261 263 265 267 269 271 273
116 159 193 214 213 212 213 217 219 220 219 218 219 222 223 226 228 232 234 235 236 238 242 244 246 247 247 250 252 254 254 256 258 258 259 261 262 264 266 267 268 271 273 274
162 145 139 182 204 214 214 215 216 218 218 219 219 221 223 226 228 231 233 235 238 240 243 245 247 249 251 252 253 255 257 257 258 261 263 264 266 268 269 270 272 272 273 277
193 180 178 183 180 194 214 216 215 216 218 218 220 221 224 226 230 233 236 239 241 243 244 245 248 249 252 254 254 253 252 253 256 257 259 262 264 266 267 269 271 273 275 278
205 188 196 193 181 184 195 210 214 214 215 217 219 220 222 226 229 232 234 238 242 244 244 246 250 254 252 242 247 249 259 260 260 262 266 266 266 268 269 271 273 275 277 278
209 212 202 200 195 185 192 194 204 210 210 213 216 219 222 224 228 232 234 235 238 240 239 239 237 235 245 241 246 251 254 256 260 263 266 265 265 269 273 274 275 277 280 281
218 215 216 206 203 196 195 197 197 202 205 208 210 215 219 223 225 229 231 232 233 234 235 235 233 235 237 244 247 247 254 257 263 267 265 265 267 268 270 272 275 274 276 277
Height
10707 10727 10737 10748 10756 10769 10791 10796 10803 10802 10817 10829 10836 10844 10849 10855 10858 10863 10869 10881 10892 10898 10908 10912 10918 10923 10927 10931 10937 10942 10948 10952 10957 10962 10968 10970 10974 10977 10980 10982 10984 10985 10985 10986
10688 10702 10705 10724 10753 10768 10774 10779 10786 10786 10806 10818 10819 10835 10842 10842 10849 10854 10860 10871 10883 10892 10897 10904 10910 10915 10921 10925 10929 10934 10939 10944 10952 10957 10961 10963 10966 10970 10972 10975 10976 10978 10978 10980
10670 10674 10696 10721 10741 10753 10761 10766 10777 10779 10794 10808 10807 10820 10829 10835 10841 10847 10854 10862 10874 10882 10890 10896 10900 10908 10914 10918 10922 10926 10931 10937 10943 10949 10953 10957 10961 10962 10965 10968 10968 10969 10970 10973
10637 10656 10684 10713 10724 10738 10752 10758 10764 10761 10764 10789 10787 10795 10823 10833 10837 10842 10850 10856 10864 10875 10883 10889 10896 10902 10909 10915 10917 10920 10924 10929 10935 10941 10946 10950 10953 10955 10957 10958 10959 10961 10963 10964
10616 10642 10678 10687 10696 10708 10723 10734 10741 10731 10735 10754 10771 10793 10815 10827 10834 10839 10847 10853 10856 10864 10873 10882 10887 10894 10901 10907 10910 10914 10917 10921 10926 10934 10939 10943 10945 10947 10949 10950 10950 10953 10954 10954
10615 10637 10653 10654 10677 10699 10704 10711 10723 10720 10719 10742 10767 10789 10805 10820 10828 10833 10840 10844 10848 10852 10859 10866 10874 10882 10888 10893 10899 10902 10905 10910 10920 10926 10931 10934 10936 10938 10940 10942 10943 10943 10944 10945
10601 10614 10627 10636 10660 10676 10680 10689 10708 10702 10701 10733 10771 10799 10809 10816 10821 10828 10833 10836 10840 10847 10853 10858 10865 10872 10877 10883 10886 10890 10895 10904 10912 10916 10919 10923 10926 10927 10930 10932 10933 10934 10934 10934
10586 10596 10611 10629 10640 10649 10666 10677 10693 10696 10692 10735 10766 10792 10802 10803 10807 10817 10827 10832 10836 10841 10846 10851 10856 10862 10867 10871 10875 10880 10888 10896 10900 10902 10906 10911 10913 10915 10918 10921 10922 10924 10925 10924
10557 10566 10585 10604 10612 10634 10647 10660 10676 10688 10695 10734 10758 10778 10787 10791 10794 10803 10813 10821 10827 10831 10836 10842 10848 10851 10855 10859 10863 10869 10875 10880 10884 10888 10893 10898 10901 10904 10906 10909 10910 10912 10914 10914
10559 10563 10582 10590 10603 10612 10628 10647 10664 10686 10705 10731 10752 10762 10770 10774 10779 10787 10798 10807 10816 10820 10825 10830 10838 10840 10843 10848 10852 10856 10861 10864 10869 10874 10877 10882 10886 10889 10893 10895 10898 10901 10903 10903
10548 10557 10583 10595 10608 10619 10638 10651 10670 10690 10704 10719 10735 10748 10756 10763 10769 10774 10776 10791 10799 10807 10817 10824 10827 10826 10834 10839 10843 10847 10851 10855 10858 10861 10864 10867 10872 10874 10880 10884 10887 10889 10891 10892
10549 10558 10575 10590 10605 10620 10639 10655 10669 10685 10698 10710 10722 10732 10741 10749 10754 10755 10765 10779 10786 10795 10805 10812 10816 10816 10820 10827 10832 10837 10841 10844 10847 10852 10856 10859 10862 10867 10867 10870 10874 10878 10879 10882
10550 10550 10565 10572 10584 10597 10615 10633 10650 10667 10682 10694 10704 10717 10723 10728 10737 10745 10751 10758 10770 10781 10790 10796 10800 10804 10810 10816 10820 10822 10827 10832 10839 10843 10849 10849 10852 10855 10857 10859 10863 10867 10868 10869
10508 10517 10541 10543 10556 10562 10581 10599 10617 10635 10648 10660 10676 10692 10697 10707 10715 10723 10732 10744 10753 10765 10771 10778 10786 10791 10797 10801 10805 10810 10815 10823 10826 10830 10832 10835 10840 10842 10846 10851 10852 10853 10853 10854
10497 10505 10514 10518 10530 10555 10576 10592 10609 10621 10631 10643 10659 10668 10672 10685 10697 10710 10719 10729 10738 10746 10756 10761 10769 10776 10781 10788 10793 10797 10804 10807 10812 10816 10821 10823 10826 10830 10832 10835 10838 10838 10838 10839
10480 10479 10483 10490 10518 10542 10560 10579 10593 10605 10618 10629 10646 10653 10656 10668 10683 10693 10699 10712 10721 10730 10740 10749 10754 10759 10764 10772 10779 10784 10789 10793 10798 10801 10805 10810 10812 10815 10817 10819 10820 10819 10820 10822
10465 10469 10481 10500 10522 10537 10551 10565 10576 10588 10603 10613 10627 10635 10644 10653 10668 10678 10685 10696 10709 10717 10726 10730 10737 10743 10747 10751 10757 10764 10772 10777 10780 10787 10790 10794 10798 10798 10798 10798 10801 10803 10805 10805
10453 10462 10477 10492 10508 10525 10535 10544 10557 10571 10581 10593 10605 10614 10626 10642 10653 10663 10674 10682 10692 10699 10704 10712 10724 10726 10726 10732 10739 10744 10753 10761 10767 10770 10772 10773 10774 10778 10780 10782 10786 10785 10785 10786
10440 10445 10455 10468 10481 10494 10509 10526 10537 10544 10552 10568 10584 10599 10613 10623 10633 10647 10658 10663 10670 10675 10687 10695 10705 10704 10705 10714 10722 10728 10733 10738 10746 10747 10748 10749 10753 10756 10759 10762 10763 10762 10761 10762
10432 10435 10441 10448 10458 10474 10490 10505 10517 10529 10542 10558 10569 10582 10593 10603 10616 10628 10637 10644 10648 10655 10668 10673 10678 10683 10687 10694 10699 10709 10714 10720 10725 10729 10725 10726 10731 10733 10735 10736 10736 10736 10737 10738
10431 10431 10434 10438 10445 10455 10468 10485 10496 10511 10525 10539 10550 10561 10577 10591 10602 10611 10620 10626 10632 10637 10643 10650 10655 10665 10671 10672 10681 10687 10691 10694 10698 10703 10705 10705 10708 10711 10711 10712 10712 10712 10711 10711
10433 10431 10430 10432 10436 10443 10452 10463 10479 10494 10510 10524 10535 10547 10561 10572 10582 10589 10598 10606 10614 10618 10621 10629 10636 10643 10653 10653 10659 10663 10669 10671 10674 10677 10680 10683 10683 10683 10683 10683 10684 10684 10684 10684
10432 10431 10430 10429 10431 10434 10439 10447 10459 10473 10490 10506 10519 10531 10543 10551 10561 10569 10578 10586 10596 10602 10607 10610 10616 10620 10626 10633 10638 10639 10640 10644 10646 10647 10651 10656 10658 10658 10658 10656 10656 10656 10656 10658
10430 10429 10429 10428 10428 10430 10432 10437 10445 10457 10470 10484 10498 10516 10526 10536 10546 10556 10562 10568 10575 10581 10587 10591 10595 10599 10601 10605 10608 10608 10608 10615 10620 10622 10623 10625 10628 10629 10628 10627 10630 10630 10630 10631
10423 10422 10424 10425 10424 10426 10429 10431 10435 10443 10454 10467 10480 10493 10504 10514 10523 10533 10543 10551 10555 10559 10564 10567 10571 10573 10578 10581 10580 10578 10579 10585 10590 10597 10600 10602 10600 10599 10601 10602 10603 10604 10603 10604
10411 10414 10415 10417 10418 10419 10423 10426 10430 10433 10439 10448 10459 10471 10483 10493 10502 10511 10519 10526 10531 10536 10540 10547 10551 10552 10552 10555 10556 10557 10557 10562 10568 10574 10575 10576 10578 10577 10574 10575 10575 10575 10575 10574
10395 10397 10404 10406 10408 10410 10412 10417 10422 10426 10431 10437 10444 10453 10461 10470 10480 10486 10492 10498 10504 10510 10516 10521 10526 10527 10530 10531 10535 10537 10537 10541 10543 10545 10550 10551 10550 10553 10553 10552 10551 10548 10545 10548